This is the latest recevied weather packets stored in our database for station/object WX2NJ-13. If no packets are shown the sender has not sent any weather packets the latest 10 day(s).
| Time | Temp. | Humidity | Pressure | Rain* | Wind** | Luminosity | Snow |
|---|---|---|---|---|---|---|---|
| 1777225787 | 7.78° C | 98% | 1020.8 hPa | 0 mm | 0.89 m/s, 62° | - | - |
| 1777225485 | 7.78° C | 98% | 1020.8 hPa | 0 mm | 1.34 m/s, 11° | - | - |
| 1777225187 | 7.78° C | 98% | 1020.7 hPa | 0 mm | 0.89 m/s, 53° | - | - |
| 1777224888 | 7.78° C | 98% | 1020.8 hPa | 0 mm | 1.79 m/s, 332° | - | - |
| 1777224586 | 7.78° C | 98% | 1020.8 hPa | 0 mm | 1.34 m/s, 325° | - | - |
| 1777224288 | 7.78° C | 98% | 1020.8 hPa | 0 mm | 2.24 m/s, 28° | - | - |
| 1777223989 | 7.78° C | 98% | 1020.8 hPa | 0 mm | 0.89 m/s, 354° | - | - |
| 1777223688 | 7.78° C | 98% | 1020.8 hPa | 0 mm | 0.89 m/s, 27° | - | - |
| 1777223389 | 7.78° C | 98% | 1020.7 hPa | 0 mm | 2.68 m/s, 15° | - | - |
| 1777223090 | 7.78° C | 98% | 1020.6 hPa | 0 mm | 0.45 m/s, 75° | - | - |
| 1777222789 | 7.78° C | 98% | 1020.6 hPa | 0 mm | 1.79 m/s, 349° | - | - |
| 1777222490 | 7.78° C | 98% | 1020.5 hPa | 0 mm | 2.24 m/s, 312° | - | - |
| 1777222192 | 7.78° C | 98% | 1020.5 hPa | 0 mm | 2.24 m/s, 7° | - | - |
| 1777221890 | 7.78° C | 98% | 1020.4 hPa | 0 mm | 0.45 m/s, 315° | - | - |
| 1777221592 | 7.78° C | 98% | 1020.4 hPa | 0 mm | 2.24 m/s, 4° | - | - |
| 1777221293 | 7.78° C | 98% | 1020.4 hPa | 0 mm | 1.34 m/s, 72° | - | - |
| 1777220992 | 7.78° C | 98% | 1020.5 hPa | 0 mm | 2.68 m/s, 52° | - | - |
| 1777220693 | 7.78° C | 98% | 1020.5 hPa | 0 mm | 1.34 m/s, 11° | - | - |
| 1777220394 | 7.78° C | 98% | 1020.6 hPa | 0 mm | 0.89 m/s, 46° | - | - |
| 1777220093 | 7.78° C | 98% | 1020.7 hPa | 0 mm | 0.89 m/s, 13° | - | - |
| 1777219794 | 7.78° C | 98% | 1020.6 hPa | 0 mm | 2.68 m/s, 342° | - | - |
| 1777219496 | 7.78° C | 98% | 1020.5 hPa | 0 mm | 1.34 m/s, 32° | - | - |
| 1777219195 | 7.22° C | 98% | 1020.5 hPa | 0 mm | 1.34 m/s, 314° | - | - |
| 1777218896 | 7.22° C | 98% | 1020.5 hPa | 0 mm | 1.79 m/s, 274° | - | - |
| 1777218597 | 7.22° C | 98% | 1020.4 hPa | 0 mm | 2.68 m/s, 332° | - | - |
* Rain latest hour (hover to see other rain measurements)
** Current wind speed in m/s (hover to see current wind gust speed)